Weather in Argat-Yul

Russia / Tomsk District     57°51′08″N   86°04′13″E
temp.,
°C
wind,
m/s
gust,
m/s
humid.,
%
clouds,
%
prec.,
mm/h
press.,
hPa
HPBL,
m
24 june, thu
thu2401:00+5n00965 0.0 101210
04:00+4ne11965 0.0 101110
07:00+8ne12803 0.0 1010174
10:00+15nne22480 0.0 1008953
13:00+18n22400 0.0 10061574
16:00+20n323985 0.0 10052185
19:00+18n3448100 0.0 1005875
22:00+14n3966100 0.0 1004283
25 june, fri
fri2501:00+10nne31278100 0.0 1004335
04:00+10n2885100 0.3 1004242
07:00+9ne2596100 2.6 1003210
10:00+10ene1199100 6.7 1004119
13:00+14n118983 8.8 1004599
16:00+15wnw028539 2.3 1005764
19:00+15sw227443 4.1 1006712
22:00+10ssw119616 0.3 100721
26 june, sat
sat2601:00+9wnw2398100 0.3 100779
04:00+8w119984 0.0 100813
07:00+10wsw2599100 0.6 1008225
10:00+12wnw3797100 0.6 1008582
13:00+11wnw4895100 1.3 1009672
16:00+12wnw2490100 0.7 1010550
19:00+13wsw4684100 1.3 1010644
22:00+11sw3697100 0.8 1011193
27 june, sun
sun2701:00+10sw3698100 2.3 1010144
04:00+10ssw2698100 0.1 1010171
07:00+10sw3898100 0.5 1010331
10:00+11sw3899100 2.3 1010516
13:00+14w358967 3.6 1010832
16:00+16w348319 2.0 1009824
19:00+16wsw238659 3.7 1009368
22:00+12ssw23935 0.5 101052
28 june, mon
mon2801:00+11ssw249697 0.5 101079
04:00+10sw229691 0.0 100943
07:00+12sw129588 0.2 1010112
10:00+16sw358558 1.3 1009389
13:00+19sw126332 2.4 1009871
16:00+19s2269100 1.0 1008821
19:00+17sse0183100 2.9 1008109
22:00+13nne1188100 0.1 100810